Flag for Brazil Weather past 2 weeks in Curitiba, Paraná, Brazil

Now
59 °F

Fog.


Feels Like: 58 °F
Forecast: 62 / 72 °F
Wind: 7 mph from Southeast

Location: Curitiba Aeroporto

Current Time: Dec 24, 2014 at 11:03:27 PM

Latest Report: Dec 24, 2014 at 10:00 PM


Visibility: 2 mi

Pressure: 30.18 "Hg

Humidity: 94%

Dew point: 57 °F

Location of CuritibaLocation

Historic Weather in Curitiba — Graph

°F

Curitiba temperature yesterday

Maximum temperature yesterday: 63 °F (at 12:00 PM)
Minimum temperature yesterday: 57 °F (at 8:00 PM)
Average temperature yesterday: 60 °F

Past Weeks' High & Low Weather Summary

 TemperatureHumidityPressure
High84 °F (Dec 11, 4:00 PM)100% (Dec 22, 9:00 AM)30.21 "Hg (Dec 22, 9:00 AM)
Low46 °F (Dec 22, 9:00 AM)30% (Dec 17, 4:00 PM)29.80 "Hg (Dec 13, 5:00 PM)
Average68 °F81%30.00 "Hg
* Reported Dec 9 10:00 PM — Dec 24 10:00 PM, Curitiba, Weather by CustomWeather, © 2014

Note: Actual official high and low records may vary slightly from our data, if they occured in-between our weather recording intervals... More about our weather records

Advertising

Curitiba weather history for previous 24 hours

 ConditionsComfort  
Time TempWeatherWind HumidityBarometerVisibility
10:00 PM
Dec 24
59 °FFog.7 mph94%30.18 "Hg2 mi
9:00 PM61 °FLight rain. Low clouds.13 mph88%30.18 "Hg2 mi
8:00 PM61 °FLight rain. Low clouds.10 mph88%30.15 "Hg2 mi
7:00 PM61 °FLight rain. Low clouds.13 mph94%30.15 "Hg2 mi
6:00 PM61 °FLight rain. Low clouds.12 mph94%30.12 "Hg2 mi
5:00 PM63 °FLight rain. Low clouds.13 mph88%30.12 "Hg2 mi
4:00 PM63 °FLight rain. Low clouds.13 mph88%30.15 "Hg2 mi
3:00 PM63 °FMostly cloudy.12 mph88%30.15 "Hg5 mi
2:00 PM61 °FMore clouds than sun.9 mph94%30.15 "Hg5 mi
1:00 PM61 °FLight rain. Fog.10 mph88%30.18 "Hg2 mi
12:00 PM61 °FMore clouds than sun.9 mph88%30.18 "HgN/A
11:00 AM63 °FMore clouds than sun.10 mph83%30.15 "HgN/A
10:00 AM59 °FDrizzle. Mostly cloudy.9 mph94%30.15 "Hg5 mi
9:00 AM59 °FCloudy.12 mph94%30.15 "Hg5 mi
8:00 AM59 °FLight rain. Fog.9 mph94%N/A2 mi
7:00 AM57 °FDrizzle. Low clouds.10 mph94%30.12 "Hg4 mi
6:00 AM57 °FLow clouds.8 mph94%30.12 "HgN/A
5:00 AM57 °FLow clouds.9 mph94%30.12 "HgN/A
4:00 AM57 °FLow clouds.13 mph94%30.12 "HgN/A
3:00 AM57 °FLow clouds.14 mph94%30.15 "HgN/A
2:00 AM57 °FLow clouds.21 mph88%30.15 "HgN/A
1:00 AM57 °FDrizzle. Mostly cloudy.17 mph88%30.18 "Hg2 mi
12:00 AM57 °FLow clouds.14 mph88%30.21 "HgN/A
11:00 PM
Dec 23
57 °FLow clouds.20 mph88%30.21 "HgN/A
Weather by CustomWeather, © 2014

See weather overviewHow to use our weather pages